User: anonymous   Login
Location: Unspecified
(0.0000°N, 0.0000°E)
Time: 06:59:08
(UTC+00:00)
Language:

SES 6 - Orbit

View from above orbital plane
View from above orbital plane
View from above satellite
View from above satellite

Ground track
Ground track

The orbit data is extracted from the following two-line orbital elements,

1 39172U 13026A   15184.28508213 -.00000266  00000-0  00000+0 0  9996
2 39172 000.0324 313.9640 0002592 160.5962 228.5523 01.00272018  7607
Epoch (UTC): 03 July 2015 06:50:31
Eccentricity: 0.0002592
inclination: 0.0324°
perigee height: 35775 km
apogee height: 35797 km
right ascension of ascending node: 313.9640°
argument of perigee: 160.5962°
revolutions per day: 1.00272018
mean anomaly at epoch: 228.5523°
orbit number at epoch: 760

The dashed part of the orbit path shows where the satellite is in the earth's shadow,  

DLR